DW4993 Weather Reports


Display with metric or nautical units.
time (UTC)temp
F
wind
direction
speed
MPH
gust
MPH
rain 1hr
in
rain 24hr
in
rain mn
in
humidity
%
barometer
mb
20260507022805 63 82 6.0 12.0 0.00 0.00 0.00 31 1005.0
20260507022306 64 73 5.0 13.0 0.00 0.00 0.00 30 1004.8
20260507021805 65 74 5.0 12.0 0.00 0.00 0.00 29 1004.8
20260507021305 65 65 3.0 10.0 0.00 0.00 0.00 30 1004.7
20260507020305 66 77 3.0 13.0 0.00 0.00 0.00 30 1004.5
20260507014804 66 54 5.0 9.0 0.00 0.00 0.00 31 1004.4
20260507014305 66 48 4.0 9.0 0.00 0.00 0.00 30 1004.4
20260507013805 66 44 5.0 14.0 0.00 0.00 0.00 30 1004.5
20260507013305 66 29 4.0 13.0 0.00 0.00 0.00 29 1004.5
20260507012805 66 47 3.0 8.0 0.00 0.00 0.00 29 1004.5
20260507012306 66 31 2.0 9.0 0.00 0.00 0.00 29 1004.5
20260507010305 67 46 4.0 12.0 0.00 0.00 0.00 29 1004.6
20260507004805 67 50 3.0 10.0 0.00 0.00 0.00 30 1004.6
20260507004305 67 358 5.0 10.0 0.00 0.00 0.00 29 1004.6
20260507003804 67 9 5.0 13.0 0.00 0.00 0.00 30 1004.6
20260507003306 67 47 5.0 12.0 0.00 0.00 0.00 31 1004.5
20260507002805 68 10 8.0 17.0 0.00 0.00 0.00 30 1004.4
20260507002306 69 9 9.0 25.0 0.00 0.00 0.00 29 1004.3
20260507001804 70 16 2.0 5.0 0.00 0.00 0.00 27 1004.1
20260507001306 70 31 1.0 2.0 0.00 0.00 0.00 27 1004.0
20260507000805 70 31 1.0 5.0 0.00 0.00 0.00 26 1003.8
20260507000306 71 26 2.0 5.0 0.00 0.00 0.00 26 1003.8
20260506235806 71 19 2.0 5.0 0.00 0.00 0.00 26 1003.7
20260506234805 71 19 1.0 3.0 0.00 0.00 0.00 27 1003.7
20260506233805 69 356 1.0 3.0 0.00 0.00 0.00 28 1003.8
20260506233305 69 356 1.0 2.0 0.00 0.00 0.00 30 1003.7
20260506232805 68 356 1.0 2.0 0.00 0.00 0.00 30 1003.8
20260506231806 68 8 3.0 12.0 0.00 0.00 0.00 30 1004.3
20260506230805 70 287 3.0 15.0 0.00 0.00 0.00 28 1004.3
20260506230305 71 30 3.0 8.0 0.00 0.00 0.00 25 1004.4
20260506225806 72 17 3.0 8.0 0.00 0.00 0.00 24 1004.3
20260506225306 72 75 2.0 6.0 0.00 0.00 0.00 24 1004.2
20260506224805 72 44 1.0 3.0 0.00 0.00 0.00 23 1004.2
20260506224305 72 30 2.0 5.0 0.00 0.00 0.00 24 1004.3
20260506223806 72 72 1.0 5.0 0.00 0.00 0.00 23 1004.4
20260506223305 72 50 3.0 9.0 0.00 0.00 0.00 24 1004.5
20260506222804 73 21 1.0 5.0 0.00 0.00 0.00 23 1004.5
20260506222306 73 71 4.0 10.0 0.00 0.00 0.00 22 1004.6
20260506221805 74 33 3.0 5.0 0.00 0.00 0.00 23 1004.6
20260506221304 74 28 5.0 12.0 0.00 0.00 0.00 23 1004.7
20260506220805 74 53 3.0 10.0 0.00 0.00 0.00 22 1004.8
20260506220305 73 52 3.0 10.0 0.00 0.00 0.00 25 1004.8
20260506215805 73 35 2.0 10.0 0.00 0.00 0.00 24 1004.8
20260506214805 72 6 3.0 8.0 0.00 0.00 0.00 24 1004.9
20260506214305 72 23 2.0 6.0 0.00 0.00 0.00 24 1005.0
20260506213805 72 10 2.0 8.0 0.00 0.00 0.00 23 1005.0
20260506213305 73 53 4.0 8.0 0.00 0.00 0.00 23 1005.2
20260506212805 73 43 5.0 12.0 0.00 0.00 0.00 24 1005.3
20260506212306 72 26 3.0 6.0 0.00 0.00 0.00 25 1005.3
20260506211805 72 26 1.0 5.0 0.00 0.00 0.00 24 1005.4
20260506211305 72 3 2.0 12.0 0.00 0.00 0.00 24 1005.5
20260506210306 73 4 5.0 9.0 0.00 0.00 0.00 24 1005.6
20260506205805 73 79 3.0 7.0 0.00 0.00 0.00 23 1005.6
20260506205306 72 37 2.0 8.0 0.00 0.00 0.00 23 1005.7
20260506204306 72 36 3.0 9.0 0.00 0.00 0.00 24 1005.8
20260506203804 72 60 3.0 9.0 0.00 0.00 0.00 23 1005.8
20260506203305 72 37 3.0 7.0 0.00 0.00 0.00 24 1005.9
20260506202807 72 355 2.0 5.0 0.00 0.00 0.00 25 1006.0
20260506202306 72 46 1.0 3.0 0.00 0.00 0.00 23 1006.0
20260506201805 71 39 1.0 3.0 0.00 0.00 0.00 25 1006.1
20260506201305 72 40 2.0 8.0 0.00 0.00 0.00 23 1006.2
20260506200805 71 33 4.0 7.0 0.00 0.00 0.00 25 1006.3
20260506200305 71 1 3.0 6.0 0.00 0.00 0.00 25 1006.4
20260506195306 70 29 1.0 5.0 0.00 0.00 0.00 23 1006.6
20260506194805 70 358 3.0 6.0 0.00 0.00 0.00 27 1006.6
20260506194306 70 290 3.0 3.0 0.00 0.00 0.00 24 1006.6
20260506193805 70 352 2.0 5.0 0.00 0.00 0.00 24 1006.6
20260506193304 70 24 2.0 5.0 0.00 0.00 0.00 25 1006.8
20260506192805 70 18 2.0 3.0 0.00 0.00 0.00 26 1006.9
20260506192306 69 233 1.0 5.0 0.00 0.00 0.00 25 1006.9
20260506191805 69 237 1.0 3.0 0.00 0.00 0.00 24 1007.0
20260506191305 69 236 2.0 3.0 0.00 0.00 0.00 25 1007.1
20260506190805 69 202 1.0 6.0 0.00 0.00 0.00 27 1007.2
20260506190305 68 215 2.0 6.0 0.00 0.00 0.00 26 1007.3
20260506185804 68 303 0.0 3.0 0.00 0.00 0.00 26 1007.4
20260506185307 68 252 2.0 6.0 0.00 0.00 0.00 25 1007.5
20260506184805 68 235 3.0 6.0 0.00 0.00 0.00 25 1007.6
20260506184306 67 230 1.0 3.0 0.00 0.00 0.00 28 1007.6
20260506183805 67 189 2.0 5.0 0.00 0.00 0.00 27 1007.7
20260506183304 67 233 5.0 7.0 0.00 0.00 0.00 26 1007.9
20260506182307 65 230 2.0 6.0 0.00 0.00 0.00 28 1007.9
20260506181804 65 218 2.0 3.0 0.00 0.00 0.00 30 1008.1
20260506181305 64 250 2.0 5.0 0.00 0.00 0.00 29 1008.1
20260506180805 64 231 3.0 6.0 0.00 0.00 0.00 29 1008.1
20260506180306 63 191 3.0 6.0 0.00 0.00 0.00 29 1008.3
20260506175805 63 234 3.0 6.0 0.00 0.00 0.00 29 1008.3
20260506174805 62 207 2.0 6.0 0.00 0.00 0.00 31 1008.4
20260506174305 62 248 4.0 7.0 0.00 0.00 0.00 29 1008.6
20260506173804 61 206 3.0 8.0 0.00 0.00 0.00 30 1008.8
20260506173305 61 194 3.0 7.0 0.00 0.00 0.00 31 1008.9
20260506172804 60 197 4.0 8.0 0.00 0.00 0.00 31 1008.9
20260506172307 60 208 5.0 8.0 0.00 0.00 0.00 30 1009.0
20260506171805 59 221 2.0 6.0 0.00 0.00 0.00 32 1009.1
20260506171304 59 198 3.0 7.0 0.00 0.00 0.00 33 1009.2
20260506165805 58 196 3.0 7.0 0.00 0.00 0.00 32 1009.4
20260506165306 57 213 2.0 6.0 0.00 0.00 0.00 35 1009.5
20260506164804 56 216 2.0 7.0 0.00 0.00 0.00 35 1009.6
20260506164305 56 237 4.0 8.0 0.00 0.00 0.00 35 1009.7
20260506163804 56 240 5.0 7.0 0.00 0.00 0.00 35 1009.7
20260506163304 55 222 5.0 8.0 0.00 0.00 0.00 35 1009.8
20260506162805 55 213 3.0 7.0 0.00 0.00 0.00 36 1009.8
20260506162307 55 220 3.0 7.0 0.00 0.00 0.00 36 1009.9
20260506161804 54 213 3.0 6.0 0.00 0.00 0.00 38 1010.0
20260506161306 53 228 3.0 5.0 0.00 0.00 0.00 37 1010.1
20260506160805 53 228 3.0 6.0 0.00 0.00 0.00 37 1010.3
20260506160304 52 224 3.0 7.0 0.00 0.00 0.00 39 1010.4
20260506155306 52 204 3.0 6.0 0.00 0.00 0.00 39 1010.6
20260506154804 51 211 3.0 6.0 0.00 0.00 0.00 40 1010.6
20260506154304 50 211 2.0 3.0 0.00 0.00 0.00 41 1010.6
20260506153805 50 214 3.0 6.0 0.00 0.00 0.00 42 1010.7
20260506152306 48 247 5.0 8.0 0.00 0.00 0.00 43 1010.9
20260506151804 47 230 5.0 7.0 0.00 0.00 0.00 44 1010.9
20260506150805 46 240 3.0 6.0 0.00 0.00 0.00 46 1011.1
20260506150305 45 249 2.0 5.0 0.00 0.00 0.00 48 1011.2
20260506145805 45 242 3.0 5.0 0.00 0.00 0.00 48 1011.2
20260506145306 44 270 2.0 3.0 0.00 0.00 0.00 49 1011.3
20260506144804 43 243 3.0 5.0 0.00 0.00 0.00 49 1011.3
20260506143804 42 225 3.0 7.0 0.00 0.00 0.00 51 1011.5
20260506143306 42 233 3.0 9.0 0.00 0.00 0.00 51 1011.6
20260506142805 41 241 4.0 9.0 0.00 0.00 0.00 52 1011.7
20260506142306 41 235 3.0 6.0 0.00 0.00 0.00 52 1011.7
20260506141805 40 227 4.0 6.0 0.00 0.00 0.00 52 1011.8
20260506141305 40 242 2.0 3.0 0.00 0.00 0.00 53 1011.9
20260506140805 39 241 3.0 5.0 0.00 0.00 0.00 53 1012.0
20260506140305 39 264 2.0 5.0 0.00 0.00 0.00 54 1012.1
20260506135805 39 238 3.0 6.0 0.00 0.00 0.00 55 1012.2
20260506135306 38 231 2.0 6.0 0.00 0.00 0.00 55 1012.2
20260506134805 37 276 1.0 2.0 0.00 0.00 0.00 57 1012.2
20260506134305 37 276 2.0 3.0 0.00 0.00 0.00 57 1012.2
20260506133806 36 283 2.0 3.0 0.00 0.00 0.00 58 1012.2
20260506133304 36 236 2.0 3.0 0.00 0.00 0.00 60 1012.2
20260506132805 35 244 2.0 5.0 0.00 0.00 0.00 60 1012.3
20260506132307 35 243 2.0 3.0 0.00 0.00 0.00 62 1012.4
20260506131805 34 232 2.0 3.0 0.00 0.00 0.00 62 1012.3
20260506131304 34 230 1.0 3.0 0.00 0.00 0.00 63 1012.3
20260506130805 33 222 1.0 3.0 0.00 0.00 0.00 64 1012.3
20260506130305 33 222 1.0 3.0 0.00 0.00 0.00 65 1012.3
20260506125806 32 222 1.0 3.0 0.00 0.00 0.00 66 1012.4
20260506125306 32 211 1.0 2.0 0.00 0.00 0.00 66 1012.4
20260506124805 32 210 2.0 3.0 0.00 0.00 0.00 66 1012.4
20260506124304 32 210 1.0 3.0 0.00 0.00 0.00 66 1012.4
20260506123806 32 210 1.0 3.0 0.00 0.00 0.00 66 1012.4
20260506123304 32 211 0.0 2.0 0.00 0.00 0.00 66 1012.5
20260506122804 32 210 0.0 2.0 0.00 0.00 0.00 66 1012.5
20260506122306 32 210 0.0 2.0 0.00 0.00 0.00 66 1012.5
20260506121804 32 211 1.0 1.0 0.00 0.00 0.00 66 1012.5
20260506120805 32 211 1.0 3.0 0.00 0.00 0.00 65 1012.6
20260506120306 32 211 2.0 3.0 0.00 0.00 0.00 65 1012.7
20260506115804 32 211 1.0 2.0 0.00 0.00 0.00 65 1012.7
20260506115307 32 211 1.0 3.0 0.00 0.00 0.00 65 1012.8
20260506114805 32 211 1.0 3.0 0.00 0.00 0.00 65 1012.8
20260506114306 32 211 0.0 2.0 0.00 0.00 0.00 64 1012.9
20260506113805 32 211 1.0 3.0 0.00 0.00 0.00 64 1013.0
20260506113304 32 211 1.0 3.0 0.00 0.00 0.00 64 1013.1
20260506112805 32 214 1.0 3.0 0.00 0.00 0.00 64 1013.1
20260506111805 32 214 1.0 3.0 0.00 0.00 0.00 63 1013.2
20260506111305 32 214 1.0 3.0 0.00 0.00 0.00 63 1013.2
20260506110804 33 214 0.0 2.0 0.00 0.00 0.00 63 1013.3
20260506110305 33 214 1.0 2.0 0.00 0.00 0.00 62 1013.3
20260506105804 33 214 1.0 3.0 0.00 0.00 0.00 62 1013.3
20260506105305 33 214 2.0 3.0 0.00 0.00 0.00 62 1013.4
20260506104805 33 215 1.0 3.0 0.00 0.00 0.00 62 1013.3
20260506104306 33 215 1.0 3.0 0.00 0.00 0.00 62 1013.4
20260506103805 33 215 2.0 3.0 0.00 0.00 0.00 61 1013.4
20260506102806 33 219 1.0 3.0 0.00 0.00 0.00 61 1013.6
20260506102306 33 219 1.0 3.0 0.00 0.00 0.00 60 1013.7
20260506101804 33 219 1.0 3.0 0.00 0.00 0.00 60 1013.8
20260506101306 33 219 1.0 2.0 0.00 0.00 0.00 60 1014.0
20260506100806 33 219 1.0 3.0 0.00 0.00 0.00 60 1014.0
20260506095805 33 223 1.0 3.0 0.00 0.00 0.00 59 1014.1
20260506095306 33 223 2.0 3.0 0.00 0.00 0.00 59 1014.3
20260506094806 33 229 1.0 3.0 0.00 0.00 0.00 59 1014.4
20260506094304 34 231 1.0 3.0 0.00 0.00 0.00 59 1014.4
20260506093304 34 244 1.0 3.0 0.00 0.00 0.00 58 1014.6
20260506092806 34 197 2.0 6.0 0.00 0.00 0.00 58 1014.6
20260506092306 34 194 1.0 5.0 0.00 0.00 0.00 57 1014.7
20260506091805 34 215 2.0 6.0 0.00 0.00 0.00 57 1014.7
20260506091304 34 201 2.0 3.0 0.00 0.00 0.00 57 1014.8
20260506090806 34 201 2.0 5.0 0.00 0.00 0.00 57 1014.9
20260506085306 34 205 3.0 6.0 0.00 0.00 0.00 56 1015.1
20260506084805 34 196 3.0 8.0 0.00 0.00 0.00 55 1015.2
20260506084304 35 202 3.0 7.0 0.00 0.00 0.00 55 1015.2
20260506083805 35 197 3.0 8.0 0.00 0.00 0.00 55 1015.2
20260506083305 35 202 2.0 7.0 0.00 0.00 0.00 55 1015.3
20260506082805 35 208 2.0 5.0 0.00 0.00 0.00 54 1015.4
20260506082305 35 196 2.0 6.0 0.00 0.00 0.00 54 1015.4
20260506081804 35 205 2.0 5.0 0.00 0.00 0.00 54 1015.5
20260506081304 35 188 2.0 7.0 0.00 0.00 0.00 54 1015.6
20260506080806 35 202 2.0 5.0 0.00 0.00 0.00 54 1015.5
20260506080304 35 259 1.0 3.0 0.00 0.00 0.00 54 1015.7
20260506073304 36 203 1.0 3.0 0.00 0.00 0.00 53 1016.0
20260506072306 36 203 1.0 3.0 0.00 0.00 0.00 52 1016.1
20260506071805 36 203 1.0 3.0 0.00 0.00 0.00 52 1016.2
20260506071305 36 196 2.0 6.0 0.00 0.00 0.00 52 1016.1
20260506070806 36 202 1.0 5.0 0.00 0.00 0.00 51 1016.3
20260506070305 36 208 2.0 5.0 0.00 0.00 0.00 51 1016.2
20260506062305 37 203 2.0 3.0 0.00 0.00 0.00 49 1016.7
20260506061304 37 237 2.0 6.0 0.00 0.00 0.00 49 1016.7
20260506060819 37 192 3.0 7.0 0.00 0.00 0.00 49 1016.8
20260506060305 38 198 2.0 8.0 0.00 0.00 0.00 49 1016.9
20260506051305 39 177 0.0 2.0 0.00 0.00 0.00 48 1017.2
20260506050304 39 182 1.0 3.0 0.00 0.00 0.00 48 1017.2
20260506044304 40 104 0.0 3.0 0.00 0.00 0.00 46 1017.3
20260506043805 41 206 1.0 3.0 0.00 0.00 0.00 45 1017.4
20260506043305 41 124 1.0 2.0 0.00 0.00 0.00 45 1017.4
20260506042805 41 123 1.0 3.0 0.00 0.00 0.00 44 1017.4
20260506042305 41 95 1.0 3.0 0.00 0.00 0.00 44 1017.4
20260506041804 41 97 0.0 2.0 0.00 0.00 0.00 43 1017.3
20260506041305 42 96 0.0 2.0 0.00 0.00 0.00 43 1017.4
20260506040805 42 95 0.0 2.0 0.00 0.00 0.00 42 1017.4
20260506040305 42 84 1.0 3.0 0.00 0.00 0.00 42 1017.3
20260506035804 42 118 2.0 3.0 0.00 0.00 0.00 42 1017.4
20260506034805 43 192 1.0 3.0 0.00 0.00 0.00 41 1017.4
20260506034305 43 123 1.0 3.0 0.00 0.00 0.00 40 1017.3
20260506033804 43 143 1.0 3.0 0.00 0.00 0.00 40 1017.3
20260506033305 43 148 0.0 3.0 0.00 0.00 0.00 39 1017.3
20260506032804 44 85 1.0 3.0 0.00 0.00 0.00 39 1017.3
20260506032305 44 164 1.0 2.0 0.00 0.00 0.00 39 1017.3
20260506031804 44 171 1.0 5.0 0.00 0.00 0.00 38 1017.2
20260506030804 45 148 0.0 3.0 0.00 0.00 0.00 37 1017.2
20260506030304 46 130 1.0 3.0 0.00 0.00 0.00 37 1017.1
20260506025805 46 108 0.0 3.0 0.00 0.00 0.00 36 1017.1
20260506025306 46 107 1.0 3.0 0.00 0.00 0.00 36 1017.1
20260506023805 47 89 3.0 9.0 0.00 0.00 0.00 34 1017.0